TimeCDT,TemperatureF,Dew PointF,Humidity,Sea Level PressureIn,VisibilityMPH,Wind Direction,Wind SpeedMPH,Gust SpeedMPH,PrecipitationIn,Events,Conditions,WindDirDegrees,DateUTC
12:09 AM,54.1,50.7,88,30.09,10.0,Calm,Calm,-,N/A,,Clear,0,2012-09-10 05:09:00
12:28 AM,50.9,48.7,92,30.08,10.0,Calm,Calm,-,N/A,,Clear,0,2012-09-10 05:28:00
12:49 AM,52.5,49.5,89,30.08,10.0,Calm,Calm,-,N/A,,Clear,0,2012-09-10 05:49:00
1:09 AM,54.1,50.0,86,30.08,10.0,Calm,Calm,-,N/A,,Clear,0,2012-09-10 06:09:00
1:29 AM,54.1,49.3,84,30.08,10.0,SE,3.5,-,N/A,,Clear,140,2012-09-10 06:29:00
1:49 AM,54.1,49.1,83,30.07,10.0,Calm,Calm,-,N/A,,Clear,0,2012-09-10 06:49:00
2:09 AM,54.1,48.4,81,30.07,10.0,Calm,Calm,-,N/A,,Clear,0,2012-09-10 07:09:00
2:29 AM,54.1,48.6,81,30.07,10.0,SSE,3.5,-,N/A,,Clear,160,2012-09-10 07:29:00
2:49 AM,54.1,48.7,82,30.06,10.0,SE,3.5,-,N/A,,Clear,140,2012-09-10 07:49:00
3:09 AM,52.3,47.8,85,30.06,10.0,Calm,Calm,-,N/A,,Clear,0,2012-09-10 08:09:00
3:12 AM,51.8,47.3,85,30.06,10.0,SE,3.5,-,N/A,,Clear,130,2012-09-10 08:12:00
3:50 AM,51.8,48.2,88,30.05,10.0,SE,4.6,-,N/A,,Clear,140,2012-09-10 08:50:00
4:10 AM,51.8,46.4,82,30.05,10.0,Calm,Calm,-,N/A,,Clear,0,2012-09-10 09:10:00
4:30 AM,51.8,46.4,82,30.04,10.0,Calm,Calm,-,N/A,,Clear,0,2012-09-10 09:30:00
4:39 AM,51.6,47.5,86,30.04,10.0,Calm,Calm,-,N/A,,Clear,0,2012-09-10 09:39:00
4:49 AM,51.8,47.8,86,30.04,10.0,Calm,Calm,-,N/A,,Clear,0,2012-09-10 09:49:00
5:09 AM,51.8,47.5,85,30.03,10.0,Calm,Calm,-,N/A,,Clear,0,2012-09-10 10:09:00
5:29 AM,51.8,47.5,85,30.03,10.0,SSE,3.5,-,N/A,,Clear,150,2012-09-10 10:29:00
5:49 AM,49.5,46.2,89,30.02,10.0,SE,3.5,-,N/A,,Clear,140,2012-09-10 10:49:00
6:09 AM,49.1,46.4,90,30.02,10.0,Calm,Calm,-,N/A,,Clear,0,2012-09-10 11:09:00
6:29 AM,52.3,48.4,86,30.02,10.0,SSE,6.9,-,N/A,,Clear,160,2012-09-10 11:29:00
6:49 AM,54.1,49.5,84,30.01,10.0,SSE,5.8,-,N/A,,Clear,160,2012-09-10 11:49:00
7:09 AM,54.1,49.6,85,30.02,10.0,South,4.6,-,N/A,,Clear,170,2012-09-10 12:09:00
7:29 AM,54.1,49.3,84,30.01,10.0,South,5.8,-,N/A,,Clear,170,2012-09-10 12:29:00
7:49 AM,56.7,50.5,80,30.01,10.0,South,8.1,-,N/A,,Clear,170,2012-09-10 12:49:00
8:08 AM,56.7,50.0,78,30.01,10.0,South,8.1,-,N/A,,Clear,180,2012-09-10 13:08:00
8:29 AM,58.1,50.7,76,30.01,10.0,South,10.4,-,N/A,,Clear,180,2012-09-10 13:29:00
8:49 AM,59.5,51.1,74,30.01,10.0,South,8.1,-,N/A,,Clear,190,2012-09-10 13:49:00
9:06 AM,61.7,51.4,69,30.00,10.0,South,10.4,16.1,N/A,,Clear,180,2012-09-10 14:06:00
9:29 AM,64.6,52.5,65,29.99,10.0,South,10.4,-,N/A,,Clear,180,2012-09-10 14:29:00
9:47 AM,68.9,54.5,60,29.98,10.0,South,10.4,18.4,N/A,,Clear,170,2012-09-10 14:47:00
10:09 AM,69.3,52.9,56,29.98,10.0,South,15.0,19.6,N/A,,Clear,180,2012-09-10 15:09:00
10:29 AM,69.4,51.8,53,29.97,10.0,South,13.8,21.9,N/A,,Clear,170,2012-09-10 15:29:00
10:49 AM,71.8,52.9,51,29.96,10.0,South,13.8,25.3,N/A,,Clear,190,2012-09-10 15:49:00
11:09 AM,74.3,54.0,49,-9999,10.0,South,17.3,25.3,N/A,,Clear,180,2012-09-10 16:09:00
11:29 AM,74.3,52.7,47,29.96,10.0,South,18.4,25.3,N/A,,Clear,180,2012-09-10 16:29:00
11:49 AM,74.3,50.9,44,29.95,10.0,South,17.3,25.3,N/A,,Clear,180,2012-09-10 16:49:00
12:09 PM,77.0,52.5,42,29.94,10.0,South,12.7,20.7,N/A,,Clear,170,2012-09-10 17:09:00
12:29 PM,77.0,51.3,40,29.93,10.0,South,19.6,26.5,N/A,,Clear,170,2012-09-10 17:29:00
12:49 PM,77.4,50.0,38,29.93,10.0,South,13.8,25.3,N/A,,Clear,190,2012-09-10 17:49:00
1:09 PM,79.3,51.3,37,29.91,10.0,South,19.6,25.3,N/A,,Clear,170,2012-09-10 18:09:00
1:29 PM,79.3,52.0,38,29.90,10.0,SSE,13.8,25.3,N/A,,Clear,160,2012-09-10 18:29:00
1:49 PM,79.3,51.4,38,29.89,10.0,SSE,16.1,26.5,N/A,,Clear,160,2012-09-10 18:49:00
2:09 PM,79.7,50.9,37,29.88,10.0,South,17.3,28.8,N/A,,Clear,180,2012-09-10 19:09:00
2:27 PM,79.9,51.3,37,29.87,10.0,SSE,13.8,26.5,N/A,,Clear,160,2012-09-10 19:27:00
2:49 PM,80.6,52.0,37,29.85,10.0,South,16.1,25.3,N/A,,Clear,170,2012-09-10 19:49:00
3:08 PM,81.1,52.2,36,29.84,10.0,South,18.4,26.5,N/A,,Clear,170,2012-09-10 20:08:00
3:28 PM,81.9,51.6,35,29.84,10.0,South,19.6,28.8,N/A,,Clear,170,2012-09-10 20:28:00
3:47 PM,82.4,51.8,35,29.83,10.0,South,19.6,27.6,N/A,,Clear,170,2012-09-10 20:47:00
4:09 PM,81.9,51.1,34,29.82,10.0,South,23.0,32.2,N/A,,Clear,170,2012-09-10 21:09:00
4:29 PM,82.2,51.1,34,29.82,10.0,South,18.4,26.5,N/A,,Clear,180,2012-09-10 21:29:00
4:49 PM,81.3,50.7,34,29.81,10.0,South,16.1,24.2,N/A,,Clear,180,2012-09-10 21:49:00
5:09 PM,80.6,50.9,35,29.81,10.0,South,13.8,24.2,N/A,,Clear,170,2012-09-10 22:09:00
5:28 PM,79.7,51.1,37,29.80,10.0,South,10.4,18.4,N/A,,Clear,170,2012-09-10 22:28:00
5:49 PM,79.5,51.1,37,29.79,10.0,South,11.5,18.4,N/A,,Clear,170,2012-09-10 22:49:00
6:09 PM,80.2,50.9,36,29.79,10.0,South,17.3,23.0,N/A,,Clear,170,2012-09-10 23:09:00
6:29 PM,80.6,51.3,36,29.79,10.0,South,13.8,21.9,N/A,,Clear,170,2012-09-10 23:29:00
6:48 PM,79.3,51.3,37,29.80,10.0,South,11.5,19.6,N/A,,Clear,170,2012-09-10 23:48:00
7:09 PM,79.0,51.6,38,29.80,10.0,South,9.2,20.7,N/A,,Clear,170,2012-09-11 00:09:00
7:29 PM,77.0,50.7,40,29.80,10.0,South,9.2,18.4,N/A,,Clear,170,2012-09-11 00:29:00
7:49 PM,77.0,52.3,42,29.80,10.0,South,10.4,-,N/A,,Clear,170,2012-09-11 00:49:00
8:09 PM,76.1,52.2,43,29.80,10.0,South,8.1,-,N/A,,Clear,170,2012-09-11 01:09:00
8:29 PM,74.3,51.8,45,29.80,10.0,SSE,6.9,-,N/A,,Clear,160,2012-09-11 01:29:00
8:49 PM,74.3,52.5,46,29.80,10.0,SSE,8.1,-,N/A,,Clear,160,2012-09-11 01:49:00
9:09 PM,74.3,52.9,47,29.80,10.0,SSE,6.9,-,N/A,,Clear,160,2012-09-11 02:09:00
9:29 PM,74.3,52.9,47,29.80,10.0,South,8.1,-,N/A,,Clear,170,2012-09-11 02:29:00
9:49 PM,74.3,53.6,48,29.80,10.0,SSE,8.1,-,N/A,,Clear,160,2012-09-11 02:49:00
10:09 PM,74.3,53.6,48,29.80,10.0,SSE,10.4,16.1,N/A,,Clear,160,2012-09-11 03:09:00
10:29 PM,74.3,53.8,49,29.80,10.0,SSE,10.4,17.3,N/A,,Clear,160,2012-09-11 03:29:00
10:49 PM,74.3,54.3,50,29.80,10.0,South,13.8,19.6,N/A,,Clear,170,2012-09-11 03:49:00
11:09 PM,71.8,52.7,51,29.80,10.0,SSE,11.5,19.6,N/A,,Clear,160,2012-09-11 04:09:00
11:29 PM,71.6,53.1,52,29.80,10.0,South,11.5,17.3,N/A,,Clear,170,2012-09-11 04:29:00
11:49 PM,69.8,52.2,53,29.80,10.0,South,9.2,-,N/A,,Clear,170,2012-09-11 04:49:00